EW7114 Weather Reports


time (UTC)temp
C
wind
direction
speed
KPH
gust
KPH
rain 1hr
cm
rain 24hr
cm
rain mn
cm
humidity
%
barometer
mb
20260831015552 21 304 6.4 12.9 0.00 0.30 0.05 46 1006.2
20260831015050 21 329 6.4 12.9 0.00 0.30 0.05 48 1006.1
20260831014548 21 313 6.4 16.1 0.00 0.30 0.05 50 1006.1
20260831014048 21 325 8.0 19.3 0.00 0.30 0.05 51 1006.1
20260831013546 22 305 11.3 17.7 0.00 0.30 0.05 51 1006.1
20260831013044 22 336 11.3 19.3 0.00 0.30 0.05 52 1006.1
20260831012543 22 321 11.3 19.3 0.00 0.30 0.05 52 1006.1
20260831012042 22 345 11.3 19.3 0.00 0.30 0.05 52 1006.2
20260831011544 23 6 9.7 20.9 0.00 0.30 0.05 52 1006.2
20260831011038 23 345 11.3 20.9 0.00 0.30 0.05 52 1006.2
20260831010538 23 355 12.9 20.9 0.00 0.30 0.05 52 1006.2
20260831010036 23 317 12.9 22.5 0.00 0.30 0.05 52 1006.3
20260831005534 23 334 16.1 24.1 0.00 0.58 0.05 52 1006.3
20260831005032 23 328 16.1 24.1 0.00 0.58 0.05 52 1006.2
20260831004531 23 355 17.7 24.1 0.00 0.58 0.05 52 1006.2
20260831004029 23 350 14.5 22.5 0.00 0.58 0.05 51 1006.2
20260831003529 23 328 11.3 24.1 0.00 0.58 0.05 52 1006.1
20260831003033 23 355 16.1 25.7 0.00 0.58 0.05 52 1006.1
20260831002524 24 335 14.5 25.7 0.00 0.58 0.05 52 1006.0
20260831002022 24 311 17.7 25.7 0.00 0.58 0.05 51 1006.1
20260831001521 24 336 14.5 24.1 0.00 0.58 0.05 52 1006.1
20260831001025 24 359 17.7 24.1 0.00 0.58 0.05 51 1006.1
20260831000518 25 328 16.1 22.5 0.00 0.58 0.05 51 1006.2
20260831000020 25 319 14.5 22.5 0.00 0.58 0.05 50 1006.1
20260830235516 25 345 12.9 22.5 0.00 0.58 0.05 49 1006.2
20260830235014 25 350 16.1 22.5 0.00 0.58 0.05 49 1006.3
20260830234531 25 302 14.5 27.4 0.00 0.58 0.05 50 1006.3
20260830234010 25 313 17.7 27.4 0.00 0.58 0.05 49 1006.3
20260830233509 25 321 9.7 22.5 0.00 0.58 0.05 50 1006.3
20260830233008 25 350 16.1 24.1 0.00 0.58 0.05 51 1006.3
20260830232506 25 337 17.7 24.1 0.00 0.58 0.05 51 1006.3
20260830232005 24 14 11.3 24.1 0.00 0.58 0.05 52 1006.3
20260830231507 23 13 16.1 24.1 0.00 0.58 0.05 52 1006.1
20260830231002 23 355 16.1 24.1 0.00 0.58 0.05 52 1006.2
20260830230600 24 14 14.5 24.1 0.00 0.58 0.05 51 1006.3
20260830230059 25 350 12.9 20.9 0.00 0.58 0.05 51 1006.4
20260830225558 25 315 14.5 27.4 0.00 0.61 0.05 51 1006.4
20260830225056 25 308 16.1 27.4 0.00 0.61 0.05 50 1006.5
20260830224555 25 322 17.7 27.4 0.00 0.61 0.05 51 1006.4
20260830224053 25 338 14.5 24.1 0.00 0.61 0.05 50 1006.4
20260830223552 25 355 11.3 24.1 0.00 0.61 0.05 51 1006.5
20260830223050 25 340 14.5 20.9 0.00 0.61 0.05 51 1006.5
20260830222551 25 318 11.3 19.3 0.00 0.61 0.05 51 1006.6
20260830222047 25 330 11.3 19.3 0.00 0.61 0.05 51 1006.7
20260830221548 25 307 11.3 22.5 0.00 0.61 0.05 50 1006.8
20260830221044 25 327 12.9 22.5 0.00 0.61 0.05 51 1006.8
20260830220543 25 285 9.7 22.5 0.00 0.61 0.05 50 1006.8
20260830220047 25 279 14.5 22.5 0.00 0.61 0.05 50 1006.7
20260830215540 25 318 12.9 27.4 0.00 0.66 0.05 50 1006.7
20260830215041 25 317 17.7 27.4 0.00 0.66 0.05 51 1006.8
20260830214537 25 309 12.9 24.1 0.00 0.66 0.05 51 1006.7
20260830214035 24 305 16.1 25.7 0.00 0.66 0.05 51 1007.0
20260830213536 24 355 12.9 25.7 0.00 0.66 0.05 50 1007.0
20260830213036 25 350 12.9 22.5 0.00 0.66 0.05 50 1007.0
20260830212531 24 350 11.3 22.5 0.00 0.66 0.05 50 1007.0
20260830212031 23 345 16.1 22.5 0.00 0.66 0.05 51 1006.9
20260830211529 23 345 14.5 24.1 0.00 0.66 0.05 51 1006.9
20260830211031 24 10 16.1 24.1 0.00 0.66 0.05 51 1006.9
20260830210527 23 345 16.1 30.6 0.00 0.66 0.05 51 1007.0
20260830210024 24 20 24.1 30.6 0.00 0.66 0.05 50 1007.1
20260830205525 25 338 19.3 30.6 0.00 0.66 0.05 50 1007.3
20260830205021 26 336 9.7 30.6 0.00 0.66 0.05 45 1007.3
20260830204524 26 197 16.1 25.7 0.00 0.66 0.05 43 1007.3
20260830204018 26 209 17.7 25.7 0.00 0.66 0.05 42 1007.5
20260830203517 25 245 12.9 24.1 0.00 0.66 0.05 44 1007.5
20260830203015 25 234 6.4 30.6 0.00 0.66 0.05 44 1007.6
20260830202514 26 232 20.9 30.6 0.00 0.66 0.05 44 1007.7
20260830202013 25 207 4.8 22.5 0.00 0.66 0.05 46 1007.7
20260830201512 25 205 12.9 22.5 0.00 0.66 0.05 45 1007.9
20260830201009 25 129 8.0 19.3 0.00 0.66 0.05 50 1007.9
20260830200508 25 131 9.7 16.1 0.00 0.66 0.05 49 1008.0
20260830200007 25 203 4.8 16.1 0.00 0.66 0.05 49 1008.0
20260830195506 24 207 1.6 16.1 0.00 0.66 0.05 50 1008.1
20260830195003 24 120 8.0 16.1 0.00 0.66 0.05 50 1008.1
20260830194502 23 88 11.3 17.7 0.00 0.66 0.05 49 1008.1
20260830194102 23 101 6.4 20.9 0.00 0.66 0.05 50 1008.3
20260830193558 23 145 11.3 20.9 0.00 0.66 0.05 50 1008.4
20260830193057 24 98 12.9 19.3 0.00 0.66 0.05 50 1008.5
20260830192555 24 123 11.3 17.7 0.00 0.66 0.05 50 1008.6
20260830192054 24 172 9.7 19.3 0.00 0.66 0.05 50 1008.8
20260830191559 23 151 11.3 19.3 0.00 0.66 0.05 50 1008.8
20260830191054 23 82 11.3 22.5 0.00 0.66 0.05 50 1008.9
20260830190552 23 118 14.5 22.5 0.00 0.66 0.05 50 1009.0
20260830190100 23 110 11.3 22.5 0.00 0.66 0.05 48 1009.1
20260830185548 23 162 12.9 22.5 0.00 0.66 0.05 48 1009.2
20260830185046 23 116 14.5 22.5 0.00 0.66 0.05 49 1009.3
20260830184543 23 150 12.9 22.5 0.00 0.66 0.05 47 1009.3
20260830184042 22 106 16.1 22.5 0.00 0.66 0.05 40 1009.6
20260830183540 22 116 14.5 22.5 0.00 0.66 0.05 42 1009.7
20260830183041 22 147 16.1 20.9 0.00 0.66 0.05 42 1009.8
20260830182542 22 122 16.1 22.5 0.00 0.66 0.05 30 1009.9
20260830182039 22 145 14.5 22.5 0.00 0.66 0.05 19 1010.0
20260830181535 22 132 12.9 20.9 0.00 0.66 0.05 7 1010.0
20260830181034 22 116 16.1 22.5 0.00 0.66 0.05 1 1010.2
20260830180535 21 155 12.9 22.5 0.00 0.66 0.05 1 1010.2
20260830180031 21 130 14.5 24.1 0.00 0.66 0.05 1 1010.3
20260830175529 21 120 12.9 19.3 0.00 0.66 0.05 1 1010.2
20260830175028 21 128 12.9 19.3 0.00 0.66 0.05 1 1010.3
20260830174528 21 130 12.9 19.3 0.00 0.66 0.05 1 1010.2
20260830174025 21 139 12.9 19.3 0.00 0.66 0.05 1 1010.3
20260830173525 21 113 9.7 19.3 0.00 0.66 0.05 1 1010.4
20260830173021 21 144 11.3 19.3 0.00 0.66 0.05 1 1010.4
20260830172520 20 141 12.9 24.1 0.00 0.66 0.05 1 1010.4
20260830172018 20 144 12.9 24.1 0.00 0.66 0.05 1 1010.4
20260830171517 20 151 11.3 19.3 0.00 0.66 0.05 1 1010.4
20260830171016 20 133 12.9 19.3 0.00 0.66 0.05 1 1010.4
20260830170514 20 121 12.9 19.3 0.00 0.66 0.05 1 1010.4
20260830170032 20 113 11.3 19.3 0.00 0.66 0.05 1 1010.4
20260830165511 20 157 12.9 19.3 0.00 1.14 0.05 1 1010.4
20260830165010 20 147 12.9 19.3 0.00 1.14 0.05 1 1010.6
20260830164508 19 157 16.1 24.1 0.00 1.14 0.05 1 1010.4
20260830164008 19 168 11.3 24.1 0.00 1.14 0.05 1 1010.4
20260830163505 19 169 14.5 24.1 0.00 1.14 0.05 1 1010.3
20260830163006 19 147 14.5 19.3 0.00 1.14 0.05 1 1010.3
20260830162502 18 163 12.9 19.3 0.00 1.14 0.05 1 1010.3
20260830162002 18 140 9.7 16.1 0.00 1.14 0.05 1 1010.3
20260830161608 18 185 8.0 17.7 0.00 1.14 0.05 1 1010.2
20260830161057 17 158 9.7 17.7 0.00 1.14 0.05 1 1010.2
20260830160556 17 153 9.7 12.9 0.00 1.14 0.05 1 1010.2
20260830160105 17 160 6.4 11.3 0.00 1.14 0.05 1 1010.3
20260830155554 17 194 4.8 12.9 0.00 1.14 0.05 1 1010.3
20260830155052 16 174 6.4 14.5 0.00 1.14 0.05 1 1010.2
20260830154551 16 173 8.0 14.5 0.00 1.14 0.05 1 1010.1
20260830154049 16 158 9.7 14.5 0.00 1.14 0.05 1 1010.1
20260830153547 16 149 9.7 14.5 0.00 1.14 0.05 1 1010.2
20260830153046 16 143 8.0 12.9 0.00 1.14 0.05 1 1010.3
20260830152544 16 125 4.8 12.9 0.00 1.14 0.05 1 1010.3
20260830152042 16 163 4.8 12.9 0.00 1.14 0.05 1 1010.3
20260830151552 15 147 9.7 12.9 0.00 1.14 0.05 1 1010.2
20260830151040 15 143 9.7 14.5 0.00 1.14 0.05 1 1010.1
20260830150539 15 120 11.3 14.5 0.00 1.14 0.05 1 1010.0
20260830150038 15 127 8.0 12.9 0.00 1.14 0.05 1 1010.0
20260830145535 15 117 6.4 8.0 0.00 1.14 0.05 1 1010.0
20260830145036 15 147 6.4 9.7 0.00 1.14 0.05 1 1010.0
20260830144545 15 147 6.4 9.7 0.00 1.14 0.05 1 1010.0
20260830144031 15 147 0.0 3.2 0.03 1.14 0.05 1 1010.0
20260830143530 14 147 0.0 4.8 0.03 1.14 0.05 1 1010.0
20260830143030 14 147 1.6 11.3 0.03 1.14 0.05 1 1009.9
20260830142526 14 147 4.8 11.3 0.03 1.14 0.05 1 1009.8
20260830142026 14 150 6.4 11.3 0.03 1.14 0.05 1 1009.9
20260830141524 13 125 4.8 8.0 0.03 1.14 0.05 1 1009.9
20260830141022 13 163 3.2 4.8 0.03 1.14 0.05 1 1009.9
20260830140521 12 163 0.0 3.2 0.03 1.14 0.05 1 1010.0
20260830140026 12 163 0.0 6.4 0.03 1.14 0.05 1 1010.0
20260830135521 12 163 3.2 6.4 0.03 1.14 0.05 1 1009.9
20260830135017 12 163 4.8 6.4 0.03 1.14 0.05 1 1009.8
20260830134515 12 107 3.2 4.8 0.03 1.14 0.05 1 1009.7
20260830134013 12 107 0.0 4.8 0.00 1.12 0.03 1 1009.8
20260830133512 13 107 0.0 6.4 0.00 1.12 0.03 1 1009.8
20260830133023 13 107 3.2 6.4 0.00 1.12 0.03 1 1009.6
20260830132508 13 107 1.6 6.4 0.00 1.12 0.03 1 1009.6
20260830132008 13 107 3.2 6.4 0.00 1.12 0.03 1 1009.6
20260830131507 13 107 1.6 6.4 0.00 1.12 0.03 1 1009.6
20260830131007 13 107 3.2 11.3 0.00 1.12 0.03 1 1009.4
20260830130505 13 107 3.2 11.3 0.00 1.12 0.03 1 1009.3
20260830130003 13 111 6.4 11.3 0.00 1.12 0.03 1 1009.3
20260830125503 13 76 6.4 9.7 0.00 1.12 0.03 1 1009.2
20260830125100 13 256 1.6 6.4 0.00 1.12 0.03 1 1009.2
20260830124558 12 256 3.2 6.4 0.00 1.12 0.03 1 1009.1
20260830124057 13 256 0.0 4.8 0.00 1.12 0.03 1 1009.0
20260830123556 13 256 1.6 4.8 0.00 1.12 0.03 1 1008.8
20260830123054 13 256 0.0 0.0 0.00 1.12 0.03 1 1008.8
20260830122553 13 256 0.0 9.7 0.00 1.12 0.03 1 1008.8
20260830122050 13 256 0.0 11.3 0.00 1.12 0.03 1 1009.0
20260830121550 13 266 8.0 12.9 0.00 1.12 0.03 1 1009.1
20260830121047 13 277 4.8 12.9 0.00 1.12 0.03 1 1009.1
20260830120546 13 249 9.7 12.9 0.00 1.12 0.03 1 1009.4
20260830120045 13 283 4.8 14.5 0.00 1.12 0.03 1 1008.9
20260830115544 13 285 8.0 14.5 0.00 1.12 0.03 1 1009.0
20260830115042 14 252 9.7 12.9 0.00 1.12 0.03 1 1009.0
20260830114544 15 80 1.6 9.7 0.00 1.12 0.03 1 1008.9
20260830114039 15 80 3.2 9.7 0.00 1.12 0.03 1 1008.4
20260830113537 15 57 1.6 11.3 0.00 1.12 0.03 1 1008.6
20260830113036 15 57 3.2 17.7 0.00 1.12 0.03 1 1008.7
20260830112535 15 65 8.0 17.7 0.00 1.12 0.03 1 1008.7
20260830112033 14 71 9.7 14.5 0.00 1.12 0.03 1 1008.7
20260830111533 14 87 0.0 6.4 0.00 1.12 0.03 1 1008.9
20260830111030 14 164 3.2 6.4 0.00 1.12 0.03 1 1008.8
20260830110529 15 164 3.2 6.4 0.00 1.12 0.03 1 1008.8
20260830110028 15 164 1.6 14.5 0.00 1.12 0.03 1 1008.6
20260830105529 15 237 6.4 27.4 0.00 1.12 0.03 1 1008.8
20260830105024 14 274 12.9 29.0 0.00 1.12 0.03 1 1008.6
20260830104522 13 246 22.5 29.0 0.00 1.12 0.03 1 1009.7
20260830104024 13 221 8.0 16.1 0.00 1.12 0.03 1 1008.5
20260830103524 13 165 0.0 6.4 0.00 1.12 0.03 1 1008.1
20260830103029 13 165 4.8 6.4 0.00 1.12 0.03 1 1008.4
20260830102522 13 165 3.2 8.0 0.00 1.12 0.03 1 1008.4
20260830102017 13 165 6.4 9.7 0.00 1.12 0.03 1 1008.4
20260830101513 13 149 6.4 11.3 0.00 1.12 0.03 1 1008.3
20260830101012 13 172 4.8 9.7 0.00 1.12 0.03 1 1008.3
20260830100511 13 170 6.4 11.3 0.00 1.12 0.03 1 1008.4
20260830100010 13 203 8.0 12.9 0.00 1.12 0.03 1 1008.5
20260830095509 13 203 8.0 12.9 0.00 1.14 0.03 1 1008.4
20260830095007 13 217 6.4 11.3 0.00 1.14 0.03 1 1008.4
20260830094505 13 208 4.8 8.0 0.00 1.14 0.03 1 1008.2
20260830094005 13 208 0.0 3.2 0.00 1.14 0.03 1 1008.1
20260830093501 13 208 0.0 6.4 0.00 1.14 0.03 1 1007.9
20260830093001 13 208 0.0 8.0 0.00 1.14 0.03 1 1007.9
20260830092559 14 208 4.8 8.0 0.00 1.14 0.03 1 1007.9
20260830092058 14 208 1.6 4.8 0.00 1.14 0.03 1 1008.0
20260830091557 14 291 3.2 8.0 0.00 1.14 0.03 1 1008.1
20260830091055 14 159 4.8 8.0 0.00 1.14 0.03 1 1008.3
20260830090554 15 159 1.6 8.0 0.00 1.14 0.03 1 1008.4
20260830090053 15 159 4.8 12.9 0.00 1.14 0.03 1 1008.3
20260830085551 15 138 4.8 12.9 0.00 1.14 0.03 1 1008.2
20260830085049 15 121 6.4 14.5 0.00 1.14 0.03 1 1008.0
20260830084547 15 130 9.7 17.7 0.00 1.14 0.03 1 1008.0
20260830084046 15 110 11.3 19.3 0.00 1.14 0.03 1 1008.2
20260830083545 15 146 12.9 19.3 0.00 1.14 0.03 1 1008.2
20260830083043 15 127 8.0 16.1 0.00 1.14 0.03 1 1008.2
20260830082542 15 172 9.7 16.1 0.00 1.14 0.03 1 1008.6
20260830082039 15 178 9.7 20.9 0.00 1.14 0.03 1 1008.8
20260830081541 15 180 12.9 25.7 0.00 1.14 0.03 1 1008.8
20260830081037 15 199 19.3 25.7 0.00 1.14 0.03 1 1009.0
20260830080536 15 215 17.7 25.7 0.00 1.14 0.03 1 1008.9
20260830080511 15 205 17.7 25.7 0.00 1.14 0.03 1 1008.9
20260830080034 15 221 19.3 24.1 0.03 1.14 0.03 1 1008.8
20260830075533 15 219 17.7 25.7 0.03 1.14 0.03 1 1008.4
20260830075032 15 226 17.7 25.7 0.03 1.14 0.03 1 1008.5
20260830074529 15 180 9.7 19.3 0.03 1.14 0.03 1 1007.6
20260830074031 15 203 12.9 19.3 0.03 1.14 0.03 1 1007.9
20260830073526 15 172 14.5 19.3 0.03 1.14 0.03 1 1008.3
20260830073029 15 177 12.9 17.7 0.03 1.14 0.03 1 1008.1
20260830072526 15 182 12.9 19.3 0.03 1.14 0.03 1 1008.1
20260830072023 15 154 8.0 16.1 0.03 1.14 0.03 1 1008.1
20260830071522 16 144 9.7 25.7 0.03 1.14 0.03 1 1007.8
20260830071027 16 164 14.5 25.7 0.03 1.14 0.03 1 1007.8
20260830070520 16 165 11.3 19.3 0.03 1.14 0.03 1 1007.9
20260830070017 16 161 14.5 22.5 0.00 1.12 0.00 1 1008.8
20260830065516 16 166 16.1 24.1 0.00 1.12 0.00 1 1008.8
20260830065015 15 180 12.9 19.3 0.00 1.12 0.00 1 1008.8
20260830064513 16 201 16.1 19.3 0.00 1.12 0.00 1 1008.7
20260830064011 16 174 11.3 27.4 0.00 1.12 0.00 1 1008.2
20260830063510 16 160 16.1 37.0 0.00 1.12 0.00 1 1008.3
20260830063009 16 175 17.7 37.0 0.00 1.12 0.00 1 1008.5
20260830062507 16 188 20.9 27.4 0.00 1.12 0.00 1 1008.7
20260830062005 15 200 12.9 25.7 0.00 1.12 0.00 1 1008.1
20260830061505 15 197 16.1 25.7 0.00 1.12 0.00 1 1008.2
20260830061004 15 200 19.3 25.7 0.00 1.12 0.00 1 1008.0
20260830060502 15 209 16.1 22.5 0.00 1.12 0.00 1 1007.9
20260830055559 15 242 11.3 16.1 0.00 1.17 1.12 1 1007.8
20260830055058 15 219 6.4 20.9 0.00 1.17 1.12 1 1007.4
20260830054555 15 204 11.3 29.0 0.00 1.17 1.12 1 1008.0
20260830054053 15 190 12.9 29.0 0.03 1.17 1.12 1 1007.9
20260830053552 16 161 16.1 30.6 0.03 1.17 1.12 1 1007.8
20260830053052 16 168 16.1 32.2 0.05 1.17 1.12 1 1007.3
20260830052549 15 153 19.3 30.6 0.08 1.17 1.12 1 1006.9
20260830052048 15 128 16.1 24.1 0.10 1.17 1.12 1 1007.2
20260830051547 16 154 14.5 24.1 0.10 1.17 1.12 1 1007.5
20260830051045 16 151 16.1 24.1 0.13 1.17 1.12 1 1007.6
20260830050544 16 143 14.5 24.1 0.13 1.17 1.12 1 1007.5
20260830050044 16 124 17.7 24.1 0.15 1.17 1.12 1 1007.1
20260830045542 16 101 16.1 24.1 0.15 1.17 1.12 1 1007.2
20260830045039 16 103 16.1 32.2 0.18 1.17 1.12 1 1007.3
20260830044538 16 116 20.9 35.4 0.18 1.17 1.12 1 1007.8
20260830044036 16 144 24.1 46.7 0.18 1.14 1.09 1 1008.9
20260830043536 16 122 27.4 56.3 0.18 1.14 1.09 1 1008.0
20260830043033 16 120 32.2 61.2 0.15 1.12 1.07 1 1008.9
20260830042532 16 116 48.3 57.9 0.13 1.09 1.04 1 1007.8
20260830042034 16 128 27.4 41.8 0.10 1.07 1.02 1 1008.9
20260830041528 16 152 24.1 40.2 0.13 1.07 1.02 1 1009.1
20260830041027 16 153 27.4 35.4 0.10 1.04 0.99 1 1008.7
20260830040526 16 128 25.7 37.0 0.10 1.04 0.99 1 1008.2
20260830040024 16 127 29.0 37.0 0.08 1.02 0.97 1 1008.4
20260830035524 16 157 20.9 25.7 0.08 1.02 0.97 1 1008.7
20260830035022 16 132 14.5 27.4 0.05 0.99 0.94 1 1008.6
20260830034520 16 206 17.7 27.4 0.05 0.99 0.94 1 1008.9
20260830034022 16 209 12.9 20.9 0.03 0.97 0.91 1 1008.9
20260830033521 16 211 6.4 12.9 0.03 0.97 0.91 1 1008.3
20260830033016 16 189 8.0 12.9 0.03 0.97 0.91 1 1008.3
20260830032514 16 161 6.4 16.1 0.03 0.97 0.91 1 1008.0
20260830032013 16 207 11.3 16.1 0.03 0.97 0.91 1 1008.2
20260830031511 16 195 11.3 17.7 0.00 0.94 0.89 1 1008.0
20260830031013 16 161 12.9 19.3 0.00 0.94 0.89 1 1007.9
20260830030509 16 142 12.9 19.3 0.00 0.94 0.89 1 1007.5
20260830030007 16 139 11.3 16.1 0.00 0.94 0.89 1 1007.3
20260830025505 15 167 6.4 12.9 0.00 0.94 0.89 1 1006.7
20260830025003 15 190 6.4 11.3 0.00 0.94 0.89 1 1006.5
20260830024504 15 190 8.0 11.3 0.00 0.94 0.89 1 1006.3
20260830024001 15 207 8.0 12.9 0.00 0.94 0.89 1 1006.1
20260830023559 15 212 8.0 14.5 0.00 0.94 0.89 1 1006.1
20260830023059 15 213 11.3 19.3 0.00 0.94 0.89 1 1006.0
20260830022559 15 219 12.9 19.3 0.00 0.94 0.89 1 1005.9
20260830022057 15 221 12.9 17.7 0.03 0.94 0.89 1 1005.9
20260830021553 15 228 12.9 19.3 0.03 0.94 0.89 1 1006.0
20260830021052 16 222 16.1 19.3 0.03 0.94 0.89 1 1006.0
20260830020551 16 222 16.1 17.7 0.03 0.94 0.89 1 1006.1
20260830020049 16 232 14.5 19.3 0.03 0.94 0.89 1 1006.1